Wind_Speed
18 18 16 14 12 12 12 12 12 11 10 9 9 8 8 8 8 7 6 6 6 7 8 11 13 14 14 14 15 15 16 17 15 19 23 22 23 21 21 23 20 19 17
19 19 16 15 13 12 13 11 12 12 9 9 10 10 9 9 10 10 10 9 9 10 13 13 14 15 15 16 15 14 14 15 16 17 17 13 15 22 23 20 21 19 19
16 19 15 15 13 12 14 13 13 14 12 10 10 10 11 12 12 13 12 12 12 13 14 13 14 16 15 16 17 16 15 14 12 11 11 11 14 15 14 14 11 9 12
22 20 18 18 18 16 17 16 13 11 9 8 10 12 14 15 15 14 16 15 14 12 13 13 13 14 16 17 18 17 16 15 14 12 12 12 11 13 13 15 15 16 16
28 26 24 24 22 19 19 10 9 8 9 9 6 11 16 16 17 19 19 18 16 15 14 13 14 13 14 17 17 19 16 15 14 14 13 13 12 13 16 15 15 19 19
22 23 25 28 27 21 18 16 13 11 9 9 9 13 17 20 21 25 23 20 21 18 19 15 14 15 15 16 16 17 18 17 15 15 15 14 13 14 14 15 16 16 21
17 24 26 27 29 26 24 32 19 15 18 16 19 19 19 23 21 16 18 24 24 23 22 20 17 16 14 17 17 17 15 15 15 15 16 17 16 15 14 13 14 12 16
27 29 25 30 26 31 35 39 18 17 14 19 20 22 25 26 24 22 22 24 25 25 23 23 21 16 16 15 17 17 15 14 14 14 15 16 15 15 16 16 18 17 17
19 27 34 30 31 24 11 13 16 20 19 24 27 27 28 27 28 27 28 23 24 25 25 25 23 20 19 15 17 16 17 15 14 13 13 14 14 15 16 17 19 19 20
13 13 20 20 15 20 17 21 21 23 25 30 31 30 30 31 29 31 31 30 25 29 27 26 24 23 21 16 14 17 15 14 14 13 12 13 13 13 14 14 14 14 15
7 14 17 20 21 21 23 26 28 27 29 32 33 34 34 32 30 34 33 36 32 32 30 30 28 26 23 19 17 17 16 15 15 14 14 14 13 12 12 13 13 14 14
15 18 21 24 25 28 30 31 32 31 34 36 36 36 35 34 35 37 37 38 37 36 34 35 32 27 23 20 18 18 17 14 13 15 15 14 13 12 11 12 13 14 15
19 23 25 29 32 34 37 39 38 36 37 39 39 39 38 37 38 40 39 40 40 37 32 36 31 28 23 20 17 18 17 16 15 15 14 15 14 13 12 12 13 13 13
25 28 31 34 36 39 41 43 42 42 43 43 43 44 42 39 39 36 39 39 37 39 38 37 32 27 23 20 18 17 17 18 17 16 14 14 15 14 12 12 12 13 13
25 28 30 33 36 38 39 40 40 38 37 38 38 39 36 32 31 31 30 29 28 33 36 33 27 25 23 20 18 18 17 19 19 17 16 17 15 15 15 15 16 15 15
18 21 20 19 20 23 24 24 26 24 25 25 26 25 23 20 19 20 23 27 32 38 38 38 23 24 23 22 20 18 19 20 20 19 22 18 17 19 17 16 18 20 21
15 15 15 15 16 17 18 19 17 16 15 19 21 22 19 14 13 12 9 12 28 37 37 37 26 22 20 22 21 20 21 20 19 18 21 19 18 20 21 21 19 12 16
16 14 15 16 16 13 12 13 13 15 16 17 16 19 20 15 13 13 16 22 29 33 34 32 32 32 25 21 18 20 19 17 17 18 18 18 19 22 23 20 20 20 22
16 15 15 15 15 14 13 13 9 12 16 14 16 18 17 16 16 15 19 17 26 34 39 36 34 25 23 26 21 18 16 15 13 12 12 13 15 15 14 12 12 14 14
15 14 14 14 12 11 12 14 11 11 11 12 14 17 18 18 14 18 19 19 30 31 25 26 27 24 20 17 16 15 14 13 13 13 13 14 14 13 13 14 15 17 19
15 14 13 14 12 10 10 8 7 7 6 6 5 2 4 5 18 23 22 29 27 23 19 17 20 20 20 17 13 12 13 14 14 15 16 17 17 17 16 16 16 15 13
13 13 12 12 11 10 6 6 6 6 6 5 4 3 7 9 13 12 12 15 24 13 20 25 22 20 16 14 10 12 14 14 13 14 14 14 14 14 13 11 10 10 11
12 11 11 11 9 9 8 7 7 6 4 3 0 5 7 8 10 10 11 13 14 20 14 11 9 8 4 4 9 12 11 12 12 11 11 10 9 9 9 9 8 9 9
10 10 10 10 10 9 10 7 8 6 3 3 6 12 7 5 9 7 12 11 17 13 17 5 7 7 9 9 9 8 8 8 9 9 9 8 8 7 7 7 6 7 7
7 7 6 7 8 9 7 6 5 2 1 1 7 2 7 7 8 9 11 13 9 6 7 9 9 8 7 6 7 6 7 8 8 7 6 6 5 6 6 7 6 8 10
7 5 4 3 5 5 5 4 5 4 4 4 7 9 8 7 6 10 13 12 6 7 9 9 8 7 7 7 6 7 8 7 7 6 5 5 6 6 7 9 12 14 15
Wind_Direction
228 226 233 243 251 254 245 229 229 234 240 244 256 268 274 270 265 266 257 261 258 266 268 263 266 268 271 284 265 263 261 272 271 273 271 275 262 258 261 260 264 265 261
224 224 232 239 245 246 244 236 234 239 242 247 252 262 269 267 266 264 264 267 268 272 263 256 256 259 263 267 276 280 277 273 267 270 267 276 263 253 258 269 269 256 261
214 218 225 235 239 237 235 234 230 236 237 254 271 276 294 304 301 289 271 264 275 284 281 262 254 265 266 266 268 268 269 270 267 264 269 276 258 249 254 256 276 246 259
204 228 223 223 218 220 232 229 235 246 268 303 311 321 315 309 305 295 281 275 277 275 266 257 250 252 255 266 266 263 262 263 269 272 267 263 252 247 236 249 244 267 243
229 231 228 234 225 224 229 229 232 240 249 262 317 329 317 297 300 293 285 272 268 271 276 261 258 255 251 251 262 268 264 258 259 258 259 265 256 244 246 249 243 257 229
226 235 233 243 237 235 234 242 224 213 228 266 310 305 314 312 297 290 281 277 272 275 280 275 271 266 261 253 259 262 263 260 257 262 261 257 252 239 233 254 242 219 226
242 240 237 245 245 239 242 243 229 221 242 278 284 296 301 297 307 295 292 293 274 270 272 276 280 275 256 249 259 257 254 258 259 257 258 257 256 246 243 239 222 213 207
253 243 230 241 252 261 244 232 230 242 251 274 278 279 280 288 285 290 289 284 267 265 268 272 278 282 270 247 253 259 255 252 255 252 253 252 248 247 245 241 225 224 215
256 242 241 244 248 284 235 210 238 254 258 265 266 269 262 270 275 281 283 280 262 257 260 264 269 274 264 254 247 262 259 257 254 260 258 257 250 246 246 241 229 227 229
245 224 235 216 216 250 252 254 257 259 262 263 266 271 273 271 271 276 280 278 272 253 254 263 261 266 264 250 244 251 261 259 258 253 259 254 250 248 245 237 238 237 241
249 226 237 247 259 258 265 269 271 267 266 266 270 272 272 274 277 279 277 271 271 257 254 252 255 258 259 252 240 246 256 253 258 252 253 256 251 245 247 249 245 243 247
247 250 256 263 268 270 271 274 275 275 275 276 274 273 275 278 279 278 272 275 268 251 257 240 245 246 251 251 245 243 246 248 247 253 255 253 250 245 246 248 250 258 261
271 272 273 275 276 277 278 277 277 278 279 279 280 280 281 281 279 279 279 274 261 249 243 234 239 237 241 245 241 241 244 246 250 254 259 262 257 252 250 253 255 254 252
277 275 273 269 269 272 275 281 284 283 281 280 281 280 280 280 278 279 280 269 253 246 219 223 230 232 234 238 238 238 243 248 251 252 255 261 254 262 262 263 259 255 252
285 282 280 280 281 280 278 279 282 282 279 274 271 271 274 274 278 283 275 251 239 209 206 213 224 229 232 233 235 236 236 241 245 245 243 254 246 249 255 258 257 257 256
308 305 301 295 290 287 284 281 275 275 272 268 265 263 265 269 277 280 285 238 218 209 209 208 221 223 225 226 229 232 236 237 238 235 242 248 252 255 254 261 259 258 259
320 311 316 317 313 314 309 295 280 270 270 268 263 263 263 265 283 291 280 210 221 212 212 205 209 212 225 226 228 232 236 244 241 242 236 245 256 262 251 276 249 260 245
307 314 324 326 328 319 330 318 279 287 286 272 276 267 265 270 288 281 270 251 234 214 204 208 208 213 225 228 226 225 237 234 236 244 244 246 247 248 259 257 246 252 267
305 297 299 312 322 322 311 325 307 278 284 286 275 275 268 267 272 278 260 256 239 226 221 217 214 212 210 221 227 230 227 223 225 226 230 235 239 243 248 248 243 251 258
291 288 281 292 305 313 313 294 281 284 288 289 273 269 253 260 252 239 239 239 239 218 222 198 196 199 209 208 202 201 209 220 229 235 236 238 241 242 245 253 261 267 270
296 291 287 286 289 304 318 305 316 280 286 293 301 282 182 220 214 214 204 200 178 179 177 177 175 175 180 184 197 216 230 237 242 247 249 249 252 256 258 261 262 263 264
296 290 286 284 285 285 291 313 314 297 293 258 248 320 292 260 249 247 275 264 242 191 170 174 174 180 196 193 207 238 242 244 248 252 254 255 254 253 251 251 254 262 268
295 298 295 289 276 264 272 288 312 302 302 319 183 155 122 109 117 125 139 141 156 184 188 179 125 148 138 218 242 244 241 244 245 240 236 235 238 243 247 250 255 263 272
301 290 286 287 281 266 262 270 270 295 323 126 166 163 157 184 174 148 129 137 164 129 153 173 177 212 252 254 247 232 217 215 218 224 233 238 239 239 247 257 264 269 271
290 277 284 279 271 273 272 261 258 307 17 273 187 98 148 140 142 162 173 167 161 208 243 231 250 260 249 220 211 209 224 237 239 236 230 230 241 251 252 251 257 269 282
319 313 302 286 252 244 247 223 206 192 209 196 180 173 166 162 190 217 173 172 202 247 252 240 239 219 207 210 221 227 226 219 214 218 225 234 242 249 261 273 279 283 285
Height
3131 3134 3136 3138 3139 3141 3141 3140 3141 3142 3143 3142 3142 3143 3142 3141 3139 3137 3136 3136 3136 3136 3138 3139 3140 3141 3141 3142 3143 3143 3143 3144 3144 3144 3146 3146 3147 3148 3149 3149 3149 3150 3151
3127 3128 3131 3132 3134 3137 3138 3137 3138 3140 3140 3140 3139 3139 3139 3138 3136 3135 3134 3133 3133 3133 3133 3133 3134 3135 3136 3137 3138 3140 3141 3140 3140 3140 3140 3140 3140 3142 3143 3145 3145 3144 3146
3120 3123 3124 3127 3130 3133 3134 3134 3133 3136 3136 3137 3138 3138 3138 3137 3136 3136 3133 3131 3131 3131 3131 3131 3132 3131 3131 3132 3133 3133 3134 3135 3136 3137 3136 3136 3136 3137 3137 3140 3141 3141 3143
3112 3119 3118 3121 3122 3126 3128 3129 3131 3134 3136 3137 3138 3138 3137 3136 3134 3133 3132 3131 3130 3128 3126 3126 3127 3127 3128 3128 3128 3127 3128 3130 3132 3132 3132 3133 3133 3135 3133 3135 3137 3139 3139
3110 3113 3114 3117 3118 3120 3123 3126 3128 3131 3132 3133 3133 3134 3133 3133 3132 3130 3129 3128 3127 3127 3125 3123 3122 3123 3123 3123 3123 3123 3123 3124 3126 3126 3128 3129 3129 3129 3130 3131 3132 3133 3132
3106 3108 3111 3113 3116 3117 3120 3123 3123 3125 3128 3129 3129 3128 3127 3128 3127 3125 3123 3123 3123 3123 3122 3120 3118 3117 3118 3118 3118 3119 3119 3119 3120 3123 3124 3124 3125 3125 3126 3127 3128 3128 3130
3100 3105 3107 3110 3112 3113 3115 3121 3119 3118 3122 3124 3124 3122 3122 3122 3122 3118 3119 3118 3118 3118 3118 3118 3115 3114 3113 3114 3114 3115 3116 3116 3116 3118 3119 3120 3121 3122 3122 3122 3124 3126 3129
3095 3098 3102 3104 3105 3107 3111 3112 3112 3114 3114 3118 3118 3116 3115 3115 3116 3114 3113 3111 3111 3112 3113 3113 3112 3111 3109 3110 3111 3112 3113 3112 3113 3113 3114 3115 3116 3117 3118 3119 3120 3122 3124
3087 3090 3094 3094 3093 3097 3100 3105 3106 3106 3105 3109 3111 3110 3108 3108 3107 3107 3105 3104 3105 3105 3106 3107 3107 3106 3106 3105 3107 3108 3110 3109 3109 3110 3112 3113 3113 3114 3114 3115 3116 3118 3119
3085 3087 3089 3091 3091 3093 3097 3099 3098 3098 3099 3100 3100 3099 3099 3100 3100 3098 3097 3098 3097 3099 3100 3102 3102 3101 3101 3101 3102 3104 3105 3107 3107 3107 3108 3110 3110 3111 3112 3112 3113 3115 3117
3082 3084 3086 3087 3087 3089 3091 3091 3091 3091 3091 3091 3091 3090 3090 3090 3089 3089 3089 3089 3091 3091 3092 3095 3096 3097 3097 3096 3098 3099 3101 3102 3104 3104 3105 3106 3108 3108 3109 3110 3111 3111 3112
3078 3079 3080 3079 3078 3079 3080 3080 3081 3081 3080 3080 3080 3079 3079 3078 3078 3077 3078 3076 3078 3080 3082 3087 3089 3090 3091 3091 3092 3094 3097 3098 3100 3101 3102 3102 3104 3105 3106 3107 3107 3109 3109
3072 3072 3071 3069 3068 3067 3067 3069 3070 3069 3069 3068 3067 3066 3066 3066 3065 3064 3064 3063 3064 3067 3072 3077 3081 3083 3084 3085 3087 3088 3091 3094 3095 3096 3098 3100 3101 3102 3102 3103 3103 3104 3104
3065 3064 3064 3062 3061 3059 3058 3055 3055 3055 3055 3054 3054 3054 3054 3053 3052 3051 3050 3047 3049 3053 3059 3067 3072 3075 3078 3079 3081 3083 3085 3087 3090 3092 3093 3095 3096 3098 3099 3099 3100 3101 3100
3057 3056 3054 3050 3049 3048 3048 3047 3046 3044 3043 3043 3042 3042 3043 3043 3043 3040 3036 3036 3038 3042 3049 3056 3062 3067 3071 3073 3076 3077 3079 3082 3085 3086 3087 3089 3091 3092 3093 3094 3095 3096 3097
3050 3049 3049 3047 3044 3041 3039 3038 3037 3034 3033 3032 3032 3033 3033 3035 3033 3031 3028 3027 3032 3036 3042 3049 3055 3059 3063 3067 3069 3071 3073 3076 3078 3079 3081 3083 3085 3086 3088 3089 3090 3091 3091
3047 3045 3043 3039 3036 3033 3029 3029 3027 3027 3025 3026 3027 3027 3028 3027 3027 3027 3024 3027 3028 3031 3035 3041 3047 3052 3056 3060 3062 3065 3067 3068 3070 3072 3074 3077 3078 3080 3081 3082 3082 3082 3082
3041 3038 3037 3035 3031 3028 3024 3022 3022 3020 3021 3021 3022 3021 3022 3023 3022 3025 3024 3023 3025 3027 3029 3034 3037 3042 3050 3053 3056 3060 3060 3062 3064 3065 3067 3069 3071 3073 3074 3074 3075 3076 3077
3035 3034 3032 3030 3026 3023 3020 3019 3017 3016 3017 3016 3015 3015 3014 3017 3017 3019 3020 3018 3017 3021 3023 3027 3032 3037 3043 3047 3049 3051 3054 3056 3058 3059 3061 3063 3064 3066 3068 3068 3069 3071 3070
3033 3029 3027 3026 3023 3020 3017 3016 3015 3015 3013 3011 3008 3011 3008 3010 3011 3014 3017 3018 3014 3014 3019 3021 3027 3031 3037 3040 3044 3047 3049 3051 3052 3054 3055 3057 3058 3060 3062 3063 3064 3065 3065
3027 3024 3022 3020 3020 3017 3013 3015 3013 3012 3010 3008 3007 3004 3005 3007 3007 3008 3009 3011 3014 3014 3015 3019 3023 3029 3034 3038 3041 3044 3045 3047 3048 3049 3050 3052 3053 3055 3057 3057 3057 3058 3059
3023 3021 3018 3018 3017 3015 3013 3014 3012 3010 3012 3010 3007 3004 3006 3005 3006 3007 3007 3010 3004 3010 3014 3018 3022 3025 3031 3034 3036 3040 3041 3042 3043 3044 3045 3047 3048 3050 3051 3052 3052 3053 3054
3019 3017 3015 3014 3014 3013 3012 3012 3011 3009 3008 3006 3006 3005 3006 3006 3007 3007 3009 3010 3012 3014 3017 3020 3023 3026 3030 3032 3034 3036 3036 3038 3039 3040 3042 3043 3045 3047 3047 3047 3048 3049 3049
3014 3014 3013 3011 3012 3010 3011 3009 3009 3008 3006 3007 3006 3005 3005 3007 3007 3010 3010 3012 3014 3016 3020 3023 3026 3028 3029 3030 3030 3031 3032 3035 3037 3038 3040 3040 3041 3042 3042 3043 3043 3044 3045
3013 3011 3009 3008 3008 3008 3007 3008 3007 3006 3006 3007 3007 3007 3005 3008 3009 3011 3013 3015 3016 3019 3021 3022 3023 3024 3025 3026 3028 3028 3030 3033 3035 3036 3036 3036 3037 3039 3039 3040 3039 3040 3040
3010 3008 3007 3008 3008 3007 3006 3006 3007 3007 3007 3006 3008 3006 3006 3007 3010 3011 3013 3015 3017 3018 3019 3019 3020 3021 3023 3024 3025 3026 3028 3030 3031 3032 3033 3033 3033 3035 3035 3035 3035 3035 3035